Regional Weather Roundup
Issued by NWS

Home | Current Version | Previous Version | Graphics & Text | Print | Product List | Glossary On
Versions: 1 2 3 4 5 6 7 8 9 10 11 12 13 14 15 16 17 18 19 20 21 22 23 24 25 26 27 28 29 30 31 32 33 34 35 36 37 38 39 40 41 42 43 44 45 46 47 48 49 50
000
ASUS45 KBOU 061707
RWRCO

WEATHER ROUNDUP FOR COLORADO
NATIONAL WEATHER SERVICE DENVER/BOULDER CO
1100 AM MDT WED MAY 06 2015

NOTE: "FAIR" INDICATES FEW OR NO CLOUDS BELOW 12000 FEET WITH NO
SIGNIFICANT WEATHER AND/OR OBSTRUCTIONS TO VISIBILITY.

COZ001>005-013-030-031-061800-
...NORTHWEST COLORADO...

CITY           SKY/WX    TMP DP  RH WIND       PRES   REMARKS
CRAIG          LGT RAIN  49  45  86 SW12      29.83R FOG
HAYDEN         CLOUDY    46  39  76 W16       29.83R
MEEKER         RAIN      49  45  86 W9        29.85R FOG
MOUNT WERNER   NOT AVBL
STEAMBOAT SPGS CLOUDY    45  43  94 SW6       29.83R
WALDEN         CLOUDY    46  41  81 N3        29.83S
$$

COZ006>008-011-061800-
...WEST CENTRAL VALLEYS...

CITY           SKY/WX    TMP DP  RH WIND       PRES   REMARKS
GRAND JUNCTION CLOUDY    61  50  67 VRB6      29.79F
MONTROSE       LGT RAIN  58  44  60 SW12      29.86F
EAGLE          LGT RAIN  48  45  87 SW9       29.87
RIFLE          LGT RAIN  50  46  86 E7        29.85S
DELTA          CLOUDY    57  50  76 SE3       29.84S
NUCLA          CLOUDY    54  45  71 SW10G18   29.91F
$$

COZ017>023-064>068-061800-
...SOUTHWEST COLORADO...

CITY           SKY/WX    TMP DP  RH WIND       PRES   REMARKS
DURANGO        PTSUNNY   54  44  69 W18G24    29.94S
CORTEZ         CLOUDY    55  44  66 W6        29.93S
PAGOSA SPRINGS DRIZZLE   47  45  94 W7        29.97S
TELLURIDE      DRIZZLE   40  40 100 CALM      30.01S
WOLF CREEK PAS NOT AVBL
$$

COZ009-010-012-014-032>034-037-058>063-061800-
...CENTRAL COLORADO...

CITY           SKY/WX    TMP DP  RH WIND       PRES   REMARKS
ASPEN          LGT RAIN  44  39  82 N8        29.89R
BUENA VISTA    NOT AVBL
COPPER MTN     CLOUDY    36  32  87 W14G20    30.00R
BERTHOUD PASS  CLOUDY    28  21  74 NW17G23   30.00R WCI  16
COTTONWOOD PAS CLOUDY    46  37  71 NW5       29.93S
GUNNISON       PTSUNNY   50  39  66 SW13G23   29.91F
KREMMLING      CLOUDY    48  39  71 W14       29.86S
LEADVILLE      LGT RAIN  41  35  79 NW9       29.92R
MONARCH PASS   CLOUDY    32  30  93 MISG      30.10F
SALIDA         CLOUDY    58  39  48 W15G26    29.91S
SUNLIGHT       SNOW      34  34 100 MISG      30.01R VSB 1/2
WILKERSON PASS LGT SNOW  32  32 100 W10G20    29.99R VSB 1   WCI  24
$$

COZ069>075-061800-
...SAN LUIS VALLEY/SANGRE DE CRISTO MOUNTAINS...

CITY           SKY/WX    TMP DP  RH WIND       PRES   REMARKS
ALAMOSA        MOSUNNY   58  37  45 S5        29.88S
LA VETA PASS   CLOUDY   N/A N/A N/A MISG      29.94F
SAGUACHE       PTSUNNY   50  45  81 SE9       29.90S
$$

COZ035-036-038>040-061800-
...NORTHERN COLORADO FRONT RANGE...

CITY           SKY/WX    TMP DP  RH WIND       PRES   REMARKS
DENVER INTL AP CLOUDY    57  50  77 NW8       29.72R
DMNS CITY PARK   N/A     58  48  67 S3        29.71S
AURORA         PTSUNNY   54  49  84 W3        29.73S
FRONT RANGE AP CLOUDY    57  52  82 W6        29.73S
ERIE MUNI ARPT CLOUDY    57  49  75 CALM      29.71S
BOULDER MUN AP CLOUDY    55  48  76 E3        29.71R
CENTENNIAL     PTSUNNY   55  47  74 CALM      29.73S
BROOMFIELD     CLOUDY    55  48  76 CALM      29.73S
FORT COLLINS   CLOUDY    55  46  71 CALM      29.72S
LONGMONT       CLOUDY    64  48  56 CALM      29.73R
$$

COZ041-046-047-076>085-087-088-061800-
...PIKES PEAK/PALMER DIVIDE AND SOUTHERN FOOTHILLS...

CITY           SKY/WX    TMP DP  RH WIND       PRES   REMARKS
COLO. SPRINGS  PTSUNNY   52  47  83 S6        29.76F
A. F. ACADEMY  PTSUNNY   54  47  78 S10       29.75S
ELLICOTT       PTSUNNY  N/A N/A N/A SW12      29.74F
FALCON         PTSUNNY   58  44  60 SW9       29.78S
FORT CARSON    PTSUNNY   51  49  94 SE5       29.73F
LIMON          CLOUDY    55  47  74 SW7       29.72S
MONUMENT HILL  PTSUNNY   55  41  58 NW8       29.76S
TRINIDAD       MOSUNNY   65  42  43 W13       29.76S
$$

COZ042>045-048>051-090-091-061800-
...NORTHEAST COLORADO...

CITY           SKY/WX    TMP DP  RH WIND       PRES   REMARKS
GREELEY ARPT     N/A    N/A N/A N/A MISG        N/A
AKRON          CLOUDY    56  54  93 W16       29.65F
BURLINGTON     CLOUDY    61  50  67 SW13      29.69R
WRAY           CLOUDY    61  55  81 SE3       29.66F
STERLING       CLOUDY    59  54  82 N12       29.61R
HOLYOKE        NOT AVBL
FORT MORGAN    HVY RAIN  55  52  90 W14       29.67S
$$

COZ086-089-092>099-061800-
...SOUTHEAST COLORADO...

CITY           SKY/WX    TMP DP  RH WIND       PRES   REMARKS
PUEBLO         CLOUDY    56  52  86 SW3       29.72F
LA JUNTA       CLOUDY    61  53  75 S6        29.70F
LAMAR          CLOUDY    61  55  81 N3        29.68S
SPRINGFIELD      N/A     68  46  45 SE6       29.70S
$$



USA.gov is the U.S. government's official web portal to all federal, state and local government web resources and services.